User: anonymous   Login
Location: Unspecified
(0.0000°N, 0.0000°E)
Time: 19:21:48
(UTC+00:00)
Language:

SKCUBE - Orbit

View from above orbital plane
View from above orbital plane
View from above satellite
View from above satellite

Ground track
Ground track

The orbit data is extracted from the following two-line orbital elements,

1 42789U 17036AA  19340.67701681 +.00000919 +00000-0 +41794-4 0  9998
2 42789 097.3307 034.9425 0011103 356.9904 003.1264 15.23158841136295
Epoch (UTC): 06 December 2019 16:14:54
Eccentricity: 0.0011103
inclination: 97.3307°
perigee height: 488 km
apogee height: 504 km
right ascension of ascending node: 34.9425°
argument of perigee: 356.9904°
revolutions per day: 15.23158841
mean anomaly at epoch: 3.1264°
orbit number at epoch: 13629

The dashed part of the orbit path shows where the satellite is in the earth's shadow,  

DLR